Location: Amherst
(42.5000°N, 72.5000°W)
Time: 09:42:15
(UTC-04:00)

ISS - Pass Details

Date: 21 July 2018
Orbit: 402 x 408 km, 51.6° (Epoch: 21 July)

Event Time Altitude Azimuth Distance (km) Brightness Sun altitude
Rises 23:04:40 0° 273° (W) 2,318 0.5 -22.1°
Reaches altitude 10° 23:07:02 10° 289° (WNW) 1,461 -0.4 -22.3°
Maximum altitude 23:09:41 22° 344° (NNW) 934 -1.2 -22.5°
Drops below altitude 10° 23:12:22 10° 38° (NE) 1,467 -0.7 -22.8°
Sets 23:14:45 0° 54° (NE) 2,330 0.2 -23.0°
